Volver al catálogo

STARLINK-36571

ActivoComunicacionesSSO
NORAD 67579·PAYLOAD·🇺🇸 United States

Lanzado Jan 25, 2026 desde Vandenberg Space Force Base

Loading…

Próximos Pases (próximas 24 horas)

TLE

ActualizadoSource: CelesTrak SupGP

Época: Sep 14, 2026, 22:51 UTC

1 67579C 26016U   26257.95256944  .00009340  00000+0  28993-3 0  2571
2 67579  97.2854 316.6729 0000957  95.9202  92.5609 15.33434467    15

Sigue STARLINK-36571 en tiempo real con AllMySat

Download on the App Store